ZHONGXING-20A

Last updated on Nov. 15, 2019, 4:20 a.m. UTC

1 37234U 10064A   19318.12338594 -.00000336  00000-0  00000+0 0  9999
2 37234   0.3514 101.1085 0004385 164.6009 318.0590  1.00269799 32897
UTC
Height (km)
Latitude
Longitude
Inclination
Orbital Period
UTC large
Height (km)
Speed (km/s)
/
Latitude / Longitude
Inclination (degrees)
Orbital Period (minutes)
Azimuth
Elevation
Range (km)
Doppler Factor
iOS Compass Heading
iOS Angle

Next 30 passes for location: Hong Kong

Rise time Rise Azimuth (degrees) Set time Set Azimuth (degrees) Duration Max altitude (degrees)

No matching passes for this satellites